Regional Weather Roundup
Issued by NWS Burlington, VT

Home | Current Version | Previous Version | Text Only | Print | Product List | Glossary On
Versions: 1 2 3 4 5 6 7 8 9 10 11 12 13 14 15 16 17 18 19 20 21 22 23 24 25 26 27 28 29 30 31 32 33 34 35 36 37 38 39 40 41 42 43 44 45 46 47 48 49 50
000
ASUS41 KBTV 281330
RWRBTV
VERMONT REGIONAL WEATHER ROUNDUP
NATIONAL WEATHER SERVICE BURLINGTON VT
800 AM EST FRI NOV 28 2014

NOTE: "FAIR" INDICATES FEW OR NO CLOUDS BELOW 12,000 FEET WITH NO
SIGNIFICANT WEATHER AND/OR OBSTRUCTIONS TO VISIBILITY.

* THESE REPORTS ARE NOT UNDER NWS QUALITY CONTROL AND/OR DO NOT
  REPORT WEATHER SUCH AS PRECIPITATION AND FOG.

VTZ001>019-281400-
_____VERMONT_____


CITY           SKY/WX    TMP DP  RH WIND       PRES   REMARKS
BURLINGTON     PTSUNNY   26  15  63 NW9       30.09S
MONTPELIER     LGT SNOW  21  19  92 NW6       30.06R FOG
MORRISVILLE    LGT SNOW  23  19  85 VRB3      30.06S FOG
ST. JOHNSBURY*   N/A     24  22  91 MISG      30.02S
LYNDONVILLE*   LGT SNOW  22  19  87 CALM      30.01S
MIDDLEBURY*    LGT SNOW  24  24 100 CALM      30.09R
RUTLAND*       CLOUDY    23  21  93 CALM      30.06R
HIGHGATE*      CLOUDY    25  19  77 W7        30.09R
NEWPORT*       LGT SNOW  22  19  91 CALM      30.02S
BENNINGTON     CLOUDY    25  22  88 W7        30.06R
GALLUP MILLS*    N/A     21 N/A N/A MISG        N/A
UNION VILLAGE*   N/A     21 N/A N/A MISG        N/A
MT. MANSFIELD*   N/A     12 N/A N/A NW18        N/A  WCI  -5

_____LAKE CHAMPLAIN_____


CITY           SKY/WX    TMP DP  RH WIND       PRES   REMARKS
BURTON ISLAND*   N/A     30  21  69 W22         N/A  WCI  17
COLCHESTER RF*   N/A     28  18  64 NW17        N/A  WCI  16
DIAMOND ISL*     N/A     28  19  69 NW12        N/A  WCI  18

$$

NYZ007-026>031-035-052-083-281400-
_____NORTHERN NEW YORK_____


CITY           SKY/WX    TMP DP  RH WIND       PRES   REMARKS
PLATTSBURGH    CLOUDY    25  17  72 CALM      30.10R
SARANAC LAKE   MOSUNNY   16  32 100 MISG      30.01R
MASSENA        MOSUNNY   20  15  81 SW7       30.14R
OGDENSBURG*    SUNNY     21  18  86 NW9       30.15R
POTSDAM*       MOSUNNY   19  18  93 W9        30.14R
STARK FALLS*     N/A     16 N/A N/A W6          N/A
WATERTOWN      SNOW      24  18  77 CALM      30.17R VSB 1/2
FT DRUM        LGT SNOW  19  18  93 W3        30.14R FOG
ALBANY         MOSUNNY   26  18  71 W12       30.12R WCI  16
GLENS FALLS    MOSUNNY   23  21  92 CALM      30.10R FOG

$$
NHZ002-005-011-281400-
_____NEW HAMPSHIRE_____


CITY           SKY/WX    TMP DP  RH WIND       PRES   REMARKS
LEBANON        MOSUNNY   22  18  85 CALM      30.05R
KEENE          PTSUNNY   25  23  93 CALM      30.06R
MT WASHINGTON  SNOWSHWR   1   1 100 W26         N/A  VSB 1/16WCI -23
PLYMOUTH       CLOUDY    26  24  94 W7        30.04R
WHITEFIELD     LGT SNOW  21  19  92 CALM      30.01S FOG

$$

_____REGIONAL QUEBEC LOCATIONS_____


CITY           SKY/WX    TMP DP  RH WIND       PRES   REMARKS
MONTREAL       FLURRIES  23  19  86 N5        30.09R
QUEBEC CITY    FLURRIES  21  12  68 E7        30.05S
SHERBROOKE     LGT SNOW  21  19  93 S2        30.01S

_____REGIONAL ONTARIO LOCATIONS_____


CITY           SKY/WX    TMP DP  RH WIND       PRES   REMARKS
OTTAWA         FLURRIES  19  14  79 NW7       30.14R

______KEY______
VSB  - VISIBILITY IN MILES
WCI  - WIND CHILL INDEX
HX   - HEAT INDEX
$$
NNNN



USA.gov is the U.S. government's official web portal to all federal, state and local government web resources and services.